Date String (YYYY-MM-DD hh:mm:ss) UTC,Instrument flags,Ambient pressure (hPa),Sample flow (lpm),Bypass flow (lpm),Sample temperature (°C),Ambient temperature (°C),ASC tube jacket temperature (°C),LED temperature (°C),Box temperature (°C),Sample RH (%),Span deviation,Mass concentration (μg/m³),Mass concentration (μg/m³),Mass concentration (μg/m³)
DateTimeUTC,F1_M11,P_M11,Q1_M11,Q2_M11,T1_M11,T2_M11,T3_M11,T4_M11,T5_M11,U1_M11,ZSPAN_M11,X0_M11,X2_M11,X1_M11
2022-03-22 01:00:00,,0824.8,5.00,0.00,21.8,21.1,00.0,30.8,23.6,15.2,0000.0,0008.23,0003.64,0003.29
2022-03-22 01:01:00,,0824.9,5.00,0.00,21.8,21.1,00.0,30.8,23.6,15.3,0000.0,0008.77,0003.66,0003.29
2022-03-22 01:02:00,,0824.9,5.00,0.00,21.8,21.1,00.0,30.8,23.6,15.0,0000.0,0008.95,0003.69,0003.28
2022-03-22 01:03:00,,0824.9,4.99,0.00,21.8,21.2,00.0,30.8,23.6,14.8,0000.0,0009.04,0003.71,0003.28
2022-03-22 01:04:00,,0824.9,4.99,0.00,21.8,21.2,00.0,30.8,23.6,14.5,0000.0,0009.06,0003.71,0003.27
2022-03-22 01:05:00,,0824.9,5.00,0.00,21.8,21.2,00.0,30.8,23.7,15.0,0000.0,0008.96,0003.68,0003.27
2022-03-22 01:06:00,,0824.9,5.01,0.00,21.8,21.2,00.0,30.8,23.7,14.9,0000.0,0008.99,0003.69,0003.28
2022-03-22 01:07:00,,0824.9,4.99,0.00,21.9,21.3,00.0,30.8,23.7,15.0,0000.0,0009.21,0003.71,0003.28
2022-03-22 01:08:00,,0824.8,5.00,0.00,21.9,21.3,00.0,30.8,23.7,15.0,0000.0,0009.80,0003.72,0003.28
2022-03-22 01:09:00,,0824.9,5.00,0.00,21.9,21.3,00.0,30.8,23.7,14.7,0000.0,0008.87,0003.71,0003.30
2022-03-22 01:10:00,,0824.9,4.99,0.00,21.9,21.3,00.0,30.8,23.6,14.8,0000.0,0008.62,0003.70,0003.31
2022-03-22 01:11:00,,0824.9,4.99,0.00,21.9,21.2,00.0,30.8,23.7,14.9,0000.0,0008.37,0003.72,0003.30
2022-03-22 01:12:00,,0824.9,5.00,0.00,21.9,21.3,00.0,30.9,23.7,14.8,0000.0,0007.78,0003.75,0003.31
2022-03-22 01:13:00,,0824.9,5.00,0.00,21.9,21.3,00.0,30.9,23.7,15.0,0000.0,0007.64,0003.72,0003.31
2022-03-22 01:14:00,,0824.9,5.01,0.00,21.9,21.3,00.0,30.9,23.7,14.3,0000.0,0007.57,0003.68,0003.28
2022-03-22 01:15:00,,0824.9,5.00,0.00,21.9,21.3,00.0,30.9,23.7,14.0,0000.0,0007.47,0003.63,0003.25
2022-03-22 01:16:00,,0824.9,5.00,0.00,22.0,21.3,00.0,30.9,23.8,14.1,0000.0,0007.38,0003.60,0003.22
2022-03-22 01:17:00,,0824.9,5.00,0.00,22.0,21.4,00.0,30.9,23.8,14.6,0000.0,0007.66,0003.60,0003.21
2022-03-22 01:18:00,,0824.9,4.99,0.00,22.0,21.3,00.0,30.9,23.8,14.1,0000.0,0008.02,0003.59,0003.19
2022-03-22 01:19:00,,0825.0,5.00,0.00,22.0,21.3,00.0,30.9,23.8,14.0,0000.0,0007.28,0003.55,0003.17
2022-03-22 01:20:00,,0825.0,5.00,0.00,22.0,21.4,00.0,30.9,23.8,14.6,0000.0,0007.24,0003.54,0003.15
2022-03-22 01:21:00,,0825.1,5.00,0.00,22.0,21.4,00.0,30.9,23.8,14.8,0000.0,0007.33,0003.55,0003.15
2022-03-22 01:22:00,,0825.1,4.98,0.00,22.0,21.4,00.0,30.9,23.8,14.8,0000.0,0007.25,0003.56,0003.16
2022-03-22 01:23:00,,0825.1,5.01,0.00,22.0,21.4,00.0,30.9,23.9,14.7,0000.0,0006.99,0003.52,0003.15
2022-03-22 01:24:00,,0825.1,5.00,0.00,22.0,21.4,00.0,31.0,23.9,14.8,0000.0,0006.85,0003.51,0003.15
2022-03-22 01:25:00,,0825.2,5.00,0.00,22.1,21.4,00.0,31.0,23.9,14.9,0000.0,0006.74,0003.50,0003.17
2022-03-22 01:26:00,,0825.2,5.00,0.00,22.1,21.4,00.0,31.0,23.9,14.9,0000.0,0006.77,0003.53,0003.19
2022-03-22 01:27:00,,0825.2,5.00,0.00,22.1,21.5,00.0,31.0,23.9,14.8,0000.0,0007.27,0003.58,0003.22
2022-03-22 01:28:00,,0825.2,5.00,0.00,22.1,21.5,00.0,31.0,24.0,14.7,0000.0,0007.52,0003.60,0003.22
2022-03-22 01:29:00,,0825.2,5.01,0.00,22.1,21.5,00.0,31.0,24.0,14.5,0000.0,0006.12,0003.60,0003.22
2022-03-22 01:30:00,,0825.2,4.99,0.00,22.1,21.5,00.0,31.0,24.0,14.5,0000.0,0006.29,0003.64,0003.24
2022-03-22 01:31:00,,0825.2,5.01,0.00,22.2,21.5,00.0,31.1,24.0,14.6,0000.0,0007.02,0003.69,0003.25
2022-03-22 01:32:00,,0825.2,5.00,0.00,22.2,21.5,00.0,31.1,24.0,14.6,0000.0,0007.88,0003.70,0003.25
2022-03-22 01:33:00,,0825.2,4.99,0.00,22.2,21.5,00.0,31.1,23.9,14.3,0000.0,0008.00,0003.65,0003.22
2022-03-22 01:34:00,,0825.3,5.00,0.00,22.2,21.5,00.0,31.1,23.9,13.9,0000.0,0008.20,0003.62,0003.18
2022-03-22 01:35:00,,0825.3,5.01,0.00,22.1,21.4,00.0,31.1,23.9,14.1,0000.0,0008.25,0003.62,0003.16
2022-03-22 01:36:00,,0825.3,4.99,0.00,22.1,21.4,00.0,31.1,23.9,14.0,0000.0,0008.30,0003.62,0003.14
2022-03-22 01:37:00,,0825.3,5.01,0.00,22.2,21.4,00.0,31.1,24.0,13.9,0000.0,0008.32,0003.59,0003.10
2022-03-22 01:38:00,,0825.4,5.00,0.00,22.2,21.5,00.0,31.1,24.0,14.2,0000.0,0008.25,0003.57,0003.05
2022-03-22 01:39:00,,0825.4,5.00,0.00,22.2,21.5,00.0,31.1,24.0,14.7,0000.0,0008.50,0003.54,0003.01
2022-03-22 01:40:00,,0825.4,5.00,0.00,22.2,21.5,00.0,31.1,24.0,15.1,0000.0,0008.47,0003.51,0002.98
2022-03-22 01:41:00,,0825.4,5.01,0.00,22.2,21.5,00.0,31.1,24.0,14.0,0000.0,0008.37,0003.46,0002.92
2022-03-22 01:42:00,,0825.4,5.00,0.00,22.2,21.5,00.0,31.1,24.0,12.6,0000.0,0007.86,0003.38,0002.78
2022-03-22 01:43:00,,0825.4,5.00,0.00,22.2,21.4,00.0,31.1,23.9,11.8,0000.0,0007.03,0003.27,0002.61
2022-03-22 01:44:00,,0825.5,4.99,0.00,22.2,21.4,00.0,31.1,23.9,11.2,0000.0,0006.45,0003.19,0002.47
2022-03-22 01:45:00,,0825.5,5.01,0.00,22.1,21.4,00.0,31.1,23.9,11.1,0000.0,0005.98,0003.11,0002.35
2022-03-22 01:46:00,,0825.5,5.01,0.00,22.1,21.4,00.0,31.1,23.9,11.3,0000.0,0005.80,0002.97,0002.20
2022-03-22 01:47:00,,0825.5,4.99,0.00,22.1,21.4,00.0,31.1,23.9,11.2,0000.0,0005.64,0002.84,0002.05
2022-03-22 01:48:00,,0825.5,4.99,0.00,22.1,21.4,00.0,31.1,23.9,11.2,0000.0,0005.52,0002.71,0001.91
2022-03-22 01:49:00,,0825.5,5.00,0.00,22.1,21.4,00.0,31.1,23.9,11.1,0000.0,0005.02,0002.54,0001.77
2022-03-22 01:50:00,,0825.6,5.00,0.00,22.1,21.3,00.0,31.1,23.9,11.0,0000.0,0003.93,0002.36,0001.63
2022-03-22 01:51:00,,0825.6,5.00,0.00,22.1,21.3,00.0,31.1,23.9,11.1,0000.0,0003.79,0002.20,0001.46
2022-03-22 01:52:00,,0825.6,5.00,0.00,22.1,21.3,00.0,31.1,23.9,10.9,0000.0,0003.62,0002.07,0001.33
2022-03-22 01:53:00,,0825.6,5.00,0.00,22.1,21.3,00.0,31.1,23.9,10.9,0000.0,0003.58,0002.00,0001.27
2022-03-22 01:54:00,,0825.6,5.00,0.00,22.1,21.3,00.0,31.1,23.8,11.0,0000.0,0003.42,0001.94,0001.24
2022-03-22 01:55:00,,0825.6,4.99,0.00,22.1,21.3,00.0,31.1,23.8,11.1,0000.0,0003.29,0001.89,0001.23
2022-03-22 01:56:00,,0825.6,5.00,0.00,22.1,21.2,00.0,31.1,23.8,10.9,0000.0,0004.14,0001.91,0001.23
2022-03-22 01:57:00,,0825.6,5.00,0.00,22.1,21.2,00.0,31.1,23.8,11.0,0000.0,0005.51,0001.90,0001.23
2022-03-22 01:58:00,,0825.6,5.01,0.00,22.1,21.2,00.0,31.1,23.8,11.1,0000.0,0005.84,0001.89,0001.23
2022-03-22 01:59:00,,0825.6,5.00,0.00,22.1,21.2,00.0,31.1,23.8,11.2,0000.0,0007.32,0001.86,0001.23
